Location: Bukit Lungun
(2.6833°N, 113.9667°E)
Time: 18:05:57
(UTC+00:00)

Daily predictions for brighter satellites

Satellite Brightness Start Highest point End
(mag) Time Altitude Azimuth Time Altitude Azimuth Time Altitude Azimuth
SWAS 4.4 12:02:28 10° SSW 12:06:43 81° WNW 12:07:42 52° N
Cosmos 1486 Rocket 4.2 12:01:56 10° N 12:06:17 48° NE 12:06:17 48° NE
Cosmos 2333 Rocket 3.7 12:01:58 10° SW 12:07:06 36° WNW 12:12:14 10° N
Nadezhda 3 Rocket 4.2 12:02:38 10° N 12:08:58 75° W 12:15:18 10° S
Cosmos 968 Rocket 3.3 12:03:56 10° N 12:09:08 66° ENE 12:10:41 44° SE
ASTEX 1 3.6 12:10:01 51° SE 12:10:01 51° SE 12:13:59 10° S
Atlas Centaur 2 3.0 12:04:47 10° WNW 12:10:53 45° SW 12:13:19 27° SSE
Cosmos 1238 Rocket 3.6 12:05:39 10° S 12:11:43 67° E 12:12:56 51° NE
Spelda 3.7 12:09:47 10° SW 12:12:08 29° S 12:12:08 29° S
COSMOS 2455 3.9 12:09:55 10° NW 12:15:33 44° WSW 12:21:12 10° S
Ariane 42L Rocket 2.7 12:08:29 10° W 12:15:44 67° NNW 12:15:44 67° NNW
Lacrosse 5 rocket 3.6 12:17:48 10° WNW 12:20:55 22° WSW 12:23:37 12° SSW
CENTAUR R/B 2.0 12:17:00 10° SSW 12:22:05 81° WNW 12:22:41 69° N
FALCON 9 R/B 4.1 12:19:52 10° SSW 12:26:40 56° SE 12:31:51 42° E
ARIANE 5 R/B 4.1 12:24:36 10° WSW 12:27:41 46° S 12:27:41 46° S
NOSS 3-2 (C) 3.1 12:24:11 10° SSW 12:29:32 77° WNW 12:29:32 77° WNW
Meteor 2-4 Rocket 3.7 12:23:36 10° N 12:29:32 86° E 12:35:28 10° S
Milstar 3 3.2 12:22:25 10° WNW 12:34:41 86° SSW 12:36:40 57° SE
SL-08 R/B 4.4 12:28:51 10° S 12:34:55 82° SSE 12:34:55 82° SSE
ARIANE 44LP R/B 4.4 12:15:12 10° W 12:36:48 43° SSW 12:37:58 40° SSE
Cosmos 1980 4.5 12:40:33 10° SSW 12:44:25 45° SSW 12:44:25 45° SSW
BLOCK DM-SL R/B 4.1 12:44:31 10° W 12:54:54 47° WSW 12:54:54 47° WSW
Centaur D-1AR AC-36 4.2 13:12:53 10° WSW 13:38:14 54° SW 13:38:14 54° SW
Ariane H10+ 4.5 13:31:53 10° W 13:50:17 46° SW 13:50:17 46° SW
Cosmos 1980 Rocket 4.4 19:49:43 21° E 19:49:43 21° E 19:52:44 10° ESE
Ariane 42L Rocket 4.3 20:04:03 74° E 20:04:03 74° E 20:18:52 10° E
Ariane H10+ 3.9 20:15:23 22° E 20:15:23 22° E 20:18:01 10° E
ARIANE 5 DEB (SYLDA) 4.0 20:14:19 67° ENE 20:14:19 67° ENE 20:17:55 10° E
ARIANE 5 DEB (SYLDA) 4.4 20:13:41 80° SW 20:14:21 85° S 20:30:33 10° E
ARIANE 5 DEB (SYLDA) 4.5 20:36:08 34° E 20:36:08 34° E 20:37:40 10° E
ATLAS 5 CENTAUR R/B 3.3 20:37:03 25° ENE 20:37:03 25° ENE 20:39:11 10° NE
CZ-3 R/B 4.0 20:28:42 42° W 20:37:33 53° NW 20:48:03 10° NE
ARIANE 5 R/B 3.4 20:44:54 44° E 20:44:54 44° E 20:47:25 10° E
Chandra Rocket (1) 2.9 20:50:29 49° NNW 20:51:43 61° NNE 20:55:13 10° ESE
Ariane H10-3 3.7 20:53:59 52° WSW 20:55:17 68° S 21:20:40 10° E
CZ-2C R/B 3.8 20:53:25 13° S 20:55:40 19° SE 20:58:45 10° E
Delta 168 3.2 20:56:10 76° SSW 20:56:10 76° SSW 21:02:19 10° ESE
Cosmos 1408 Rocket 3.7 20:56:52 30° N 20:58:55 70° E 21:03:13 10° S
H-2A R/B 4.3 20:57:48 10° SE 21:01:28 25° ENE 21:05:02 10° NNE
GPS 2-17 Rocket1 3.8 21:05:29 40° NNW 21:05:29 40° NNW 21:09:40 10° NE
Landsat 5 3.7 21:04:47 10° SSE 21:08:39 60° E 21:12:24 10° N
Cosmos 2278 3.8 21:08:34 47° WNW 21:09:26 51° WSW 21:14:56 10° S
Ariane H10 1.7 21:12:14 51° ENE 21:12:14 51° ENE 21:14:11 10° E
Ariane 44LP R/B 3.5 21:11:21 39° WSW 21:12:57 67° SSE 21:30:31 10° E
Cosmos 1932 4.3 21:10:34 18° NNW 21:15:16 80° WSW 21:21:26 10° SSE
GPS 2-12 Rocket1 3.8 21:15:12 34° SW 21:15:47 36° SSW 21:19:54 10° SE
Cosmos 1461 4.1 21:19:07 25° SSW 21:19:07 25° SSW 21:21:18 10° S
CZ-4C R/B 2.3 21:19:30 34° NW 21:19:30 34° NW 21:22:53 10° N
Intelsat 5-1 Rocket 4.4 21:15:17 10° SW 21:19:44 18° S 21:22:23 10° SE
Iridium 45 4.4 21:16:33 10° N 21:20:16 89° W 21:23:50 10° S
Cosmos 1151 Rocket 4.2 21:21:02 10° SSE 21:25:14 46° E 21:29:23 10° NNE
Cosmos 1110 Rocket 4.1 21:22:44 21° NW 21:25:53 48° WSW 21:30:51 10° S
GPS 2-18 Rocket1 2.9 21:27:39 39° WSW 21:28:56 87° NNW 21:32:43 10° ENE
Cosmos 2297 Rocket 4.2 21:25:20 10° SSE 21:30:14 30° ESE 21:35:05 10° NE
Hubble Space Telescope 1.6 21:30:19 29° WSW 21:31:27 35° SSW 21:35:15 10° SE
Cosmos 1980 Rocket 3.1 21:31:35 25° W 21:32:10 25° WSW 21:36:44 10° SSW
CZ-4C R/B 3.0 21:30:30 10° S 21:33:31 45° W 21:34:39 30° NW
DELTA 2 R/B (1) 4.1 21:32:43 25° W 21:35:25 43° SW 21:40:42 10° SSE
deb Ariane 2.9 21:36:14 23° SW 21:37:25 39° S 21:39:45 10° E
H-2A R/B 2.6 21:34:13 10° N 21:38:01 79° W 21:41:49 10° SSW
Cosmos 1745 Rocket 4.2 21:32:20 10° NNW 21:38:21 47° W 21:44:26 10° SSW
USA 234 3.2 21:33:44 10° SSE 21:40:16 77° SW 21:46:47 10° NW
Cosmos 1862 3.6 21:37:54 10° NNW 21:41:42 43° W 21:45:30 10° SSW
BREEZE-M (TANK) 3.2 21:40:21 19° NW 21:42:41 74° SW 21:53:11 10° SE
Cosmos 1933 3.5 21:39:34 10° SSW 21:43:25 45° W 21:47:14 10° NNW
Cosmos 407 Rocket 3.5 21:38:48 10° SSW 21:43:59 58° WNW 21:49:07 10° N
BLOCK DM-SL R/B 3.1 21:41:30 17° WSW 21:44:53 56° S 21:48:50 10° E
Cosmos 2322 Rocket 2.9 21:40:09 10° N 21:45:42 57° ENE 21:51:17 10° SSE
Alouette 2 Rocket 4.3 21:43:46 10° SW 21:46:59 27° WNW 21:50:59 10° NNW
Intelsat 5-3 Rocket 2.9 21:45:07 21° W 21:47:25 62° SSW 21:55:00 10° ESE
Ariane H10 4.0 21:44:35 11° SW 21:47:33 21° S 21:49:54 10° SE
Cosmos 1328 Rocket 3.7 21:43:19 10° S 21:47:39 78° E 21:51:57 10° N
NOSS 3-4 (A) 4.2 21:43:08 11° WSW 21:47:51 26° WNW 21:52:37 10° N
NOSS 3-4 (C) 4.2 21:43:03 10° WSW 21:47:56 27° WNW 21:52:44 10° N
COSMO-SKYMED 1 3.8 21:44:29 10° SSE 21:48:38 45° ENE 21:52:46 10° N
Cosmos 1190 Rocket 3.9 21:43:52 10° SSW 21:49:08 74° WNW 21:54:25 10° N
ARIANE 5 R/B 1.8 21:47:55 17° W 21:50:32 60° S 21:52:32 10° E
Cosmos 1709 Rocket 4.0 21:44:44 10° N 21:51:05 74° W 21:57:24 10° S
SJ-7 4.3 21:50:43 10° N 21:54:44 78° WNW 21:58:50 10° SSW
Cosmos 2219 3.9 21:54:04 10° S 21:59:42 61° ESE 22:05:17 10° NNE
CZ-4B R/B 2.3 21:57:12 10° SSE 22:00:26 51° ENE 22:03:33 10° N
ATLAS 2AS CENTAUR R/B 3.3 21:54:33 10° SW 22:01:40 45° WNW 22:09:06 10° N
ATLAS 3B CENTAUR R/B 3.8 21:59:09 10° SSW 22:03:41 42° SE 22:13:01 10° ENE
ATLAS CENTAUR R/B 1.6 22:03:39 10° NNW 22:08:06 67° WSW 22:12:47 10° SSE
SL-16 R/B 2.3 22:04:06 10° NNW 22:09:37 55° WSW 22:15:08 10° S
Nadezhda 1 Rocket 3.9 22:04:58 10° S 22:11:02 82° W 22:17:07 10° N
MOS 1 Rocket 3.0 22:08:24 10° S 22:12:41 70° WSW 22:16:55 10° NNW
Cosmos 1805 Rocket 3.7 22:09:02 10° NNW 22:13:22 54° W 22:17:42 10° S
CZ-4B R/B 4.3 22:10:53 10° NNW 22:14:16 21° WNW 22:17:36 10° SW
deb Ariane 4.2 22:15:01 10° WSW 22:21:54 38° S 22:24:43 10° ESE
ARIANE 5 DEB (SYLDA) 3.9 22:23:25 10° W 22:42:16 80° S 22:47:13 10° E
Ariane H10 4.3 22:11:46 10° W 22:56:59 87° N 23:01:49 10° E
BLOCK DM-SL R/B 4.2 22:33:09 10° W 23:05:17 60° S 23:09:33 10° ESE
